星链-35092 (STARLINK-35092)

导读

STARLINK-35092是美国SpaceX公司星链(Starlink)星座的成员卫星,于2025年8月27日发射入轨。星链项目旨在构建全球低轨宽带互联网星座,该卫星采用紧凑型平板设计,搭载Ku/Ka波段通信载荷与霍尔推进系统,具备自主避撞能力,可提供高速低延迟网络接入,服务全球直播、远程通信等场景,寿命末期将主动离轨再入大气层销毁,减少太空垃圾。

基本信息
目录编号:
65342
目录名称:
STARLINK-35092
国际标识:
2025-189V
轨道中心:
EARTH
卫星名称:
星链-35092
卫星全名:
星链-35092 (STARLINK-35092)
卫星状态:
在轨 (已飞行374 天)
发射日期:
2025-08-27 UTC
国别 :
美国 (US)
星等 :
--
轨道信息
数据来源 国际轨道数据
星历时间: 2026-09-04T13:20:43+0800
1天前
查看轨道信息
半长轴: 6848.827km
偏心率: 0.0001064
轨道倾角: 53.158°
近地点辐角 76.004°
升交点赤经 95.869°
平近点角 284.108°
近地点: 469.961km
远地点: 471.419km
周期: 94.012分钟
每日圈数: 15.317171
详细信息
固有亮度:
5
最大亮度:
2.5
卫星平台:
Starlink V1.0
覆盖范围:
全球
运营商:
太空探索技术公司
运营商所在国:
美国
制造商(研发单位):
太空探索技术公司
制造商所在国:
美国
使用方式:
暂无
卫星简介
Starlink 计划是 SpaceX 推出的全球卫星互联网项目,通过发射低轨道卫星,为全球尤其是偏远地区提供高速、低延迟的互联网服务。自 2019 年起,Starlink 已部署数千颗卫星,旨在缩小全球数字鸿沟,推动互联网普及。该项目还为军事、航空等行业提供通信支持,带来广泛经济效益。
2D轨道图
3D轨道图
轨道高度分析图
轨道倾角分析图
轨道综合分析图
查看轨道综合分析图
交会数据列表
事件ID 空间交会对象 最接近时刻(TCA) 交会距离 交会风险概率(CRP) 交会风险指数(CRI) 操作
CDM_260905-023604-439006-534223
ICEYE-X4 (44390)
2026-09-05T
02:36:13+0000
1.455 km
极远距离
7.382867E-6 低风险 0.52
CDM_260907-115606-534206-757521
2026-09-07T
11:56:30+0000
2.711 km
极远距离
1.465488E-6 低风险 0.38
CDM_260906-095406-534206-956121
2026-09-06T
09:54:10+0000
2.930 km
极远距离
1.372668E-6 低风险 0.38
CDM_260905-194706-534206-903321
2026-09-05T
19:47:45+0000
2.689 km
极远距离
9.243259E-7 极低风险 0.34